Location: LDNL
(36.4545°S, 141.6685°E)
Time: 03:11:03
(UTC+11:00)

Vanguard 2 - Pass Details

Date: 14 August 2022
Orbit: 552 x 2934 km, 32.9° (Epoch: 06 October)

Event Time Altitude Azimuth Distance (km) Brightness Sun altitude
Rises 19:47:29 0° 271° (W) 6,549 13.8 -22.3°
Reaches altitude 10° 19:52:14 10° 272° (W) 5,307 12.9 -23.2°
Maximum altitude 20:06:54 73° 352° (N) 1,910 9.4 -26.2°
Enters shadow 20:10:45 44° 64° (ENE) 2,121 9.2 -27.0°
Drops below altitude 10° 20:15:39 10° 75° (ENE) 3,314 - -27.9°
Sets 20:17:57 0° 77° (ENE) 4,032 - -28.4°
